Time,TemperatureF,DewpointF,PressureIn,WindDirection,WindDirectionDegrees,WindSpeedMPH,WindSpeedGustMPH,Humidity,HourlyPrecipIn,Conditions,Clouds,dailyrainin,SoftwareType,DateUTC
2013-03-17 00:03:00,34.0,32.0,29.92,North,0,0.0,0.0,93,0.00,,,0.02,,2013-03-17 04:03:00,
2013-03-17 00:13:00,34.0,32.0,29.92,North,0,0.0,0.0,93,0.00,,,0.02,,2013-03-17 04:13:00,
2013-03-17 00:23:00,34.0,32.0,29.92,North,0,0.0,0.0,93,0.00,,,0.02,,2013-03-17 04:23:00,
2013-03-17 00:33:00,34.0,32.0,29.92,North,0,0.0,0.0,93,0.00,,,0.02,,2013-03-17 04:33:00,
2013-03-17 00:43:00,34.0,32.0,29.92,North,0,0.0,0.0,93,0.00,,,0.02,,2013-03-17 04:43:00,
2013-03-17 00:53:00,33.0,31.0,29.92,North,0,0.0,0.0,93,0.00,,,0.02,,2013-03-17 04:53:00,
2013-03-17 01:03:00,33.0,31.0,29.93,North,0,0.0,0.0,93,0.00,,,0.02,,2013-03-17 05:03:00,
2013-03-17 01:12:00,33.0,31.0,29.93,North,0,0.0,0.0,93,0.00,,,0.02,,2013-03-17 05:12:00,
2013-03-17 01:22:00,33.0,31.0,29.93,North,0,0.0,0.0,93,0.00,,,0.02,,2013-03-17 05:22:00,
2013-03-17 01:32:00,32.0,30.0,29.93,North,0,0.0,0.0,94,0.00,,,0.02,,2013-03-17 05:32:00,
2013-03-17 01:42:00,32.0,30.0,29.93,North,0,0.0,0.0,94,0.00,,,0.02,,2013-03-17 05:42:00,
2013-03-17 01:52:00,31.0,29.0,29.93,North,0,0.0,0.0,94,0.00,,,0.02,,2013-03-17 05:52:00,
2013-03-17 02:02:00,31.0,29.0,29.93,North,0,0.0,0.0,94,0.00,,,0.02,,2013-03-17 06:02:00,
2013-03-17 02:12:00,31.0,29.0,29.93,North,0,0.0,0.0,94,0.00,,,0.02,,2013-03-17 06:12:00,
2013-03-17 02:22:00,31.0,29.0,29.93,North,0,0.0,0.0,94,0.00,,,0.02,,2013-03-17 06:22:00,
2013-03-17 02:32:00,30.0,29.0,29.93,North,0,0.0,0.0,95,0.00,,,0.02,,2013-03-17 06:32:00,
2013-03-17 02:42:00,30.0,29.0,29.93,North,0,0.0,0.0,95,0.00,,,0.02,,2013-03-17 06:42:00,
2013-03-17 02:53:00,29.0,28.0,29.94,North,0,0.0,0.0,95,0.00,,,0.02,,2013-03-17 06:53:00,
2013-03-17 03:02:00,29.0,28.0,29.94,North,0,0.0,0.0,96,0.00,,,0.02,,2013-03-17 07:02:00,
2013-03-17 03:12:00,29.0,28.0,29.94,North,0,0.0,0.0,96,0.00,,,0.02,,2013-03-17 07:12:00,
2013-03-17 03:22:00,29.0,28.0,29.94,North,0,0.0,0.0,96,0.00,,,0.02,,2013-03-17 07:22:00,
2013-03-17 03:32:00,29.0,28.0,29.94,North,0,0.0,0.0,96,0.00,,,0.02,,2013-03-17 07:32:00,
2013-03-17 03:42:00,29.0,28.0,29.94,North,0,0.0,0.0,96,0.00,,,0.02,,2013-03-17 07:42:00,
2013-03-17 03:52:00,29.0,28.0,29.95,NNW,330,0.0,1.0,96,0.00,,,0.02,,2013-03-17 07:52:00,
2013-03-17 04:03:00,30.0,28.0,29.96,NNW,336,0.0,2.0,92,0.00,,,0.02,,2013-03-17 08:03:00,
2013-03-17 04:13:00,30.0,27.0,29.96,NNW,348,1.0,6.0,88,0.00,,,0.02,,2013-03-17 08:13:00,
2013-03-17 04:22:00,30.0,27.0,29.96,NNW,348,1.0,6.0,88,0.00,,,0.02,,2013-03-17 08:22:00,
2013-03-17 04:32:00,30.0,27.0,29.96,NNW,348,1.0,6.0,88,0.00,,,0.02,,2013-03-17 08:32:00,
2013-03-17 04:42:00,30.0,27.0,29.96,NNW,348,1.0,6.0,88,0.00,,,0.02,,2013-03-17 08:42:00,
2013-03-17 04:52:00,30.0,27.0,29.96,NNW,348,1.0,6.0,88,0.00,,,0.02,,2013-03-17 08:52:00,
2013-03-17 05:03:00,29.0,25.0,29.98,North,0,0.0,0.0,86,0.00,,,0.02,,2013-03-17 09:03:00,
2013-03-17 05:13:00,29.0,25.0,29.98,North,0,0.0,0.0,86,0.00,,,0.02,,2013-03-17 09:13:00,
2013-03-17 05:22:00,29.0,25.0,29.98,North,0,0.0,0.0,86,0.00,,,0.02,,2013-03-17 09:22:00,
2013-03-17 05:32:00,28.0,24.0,29.99,North,350,0.0,3.0,86,0.00,,,0.02,,2013-03-17 09:32:00,
2013-03-17 05:43:00,28.0,24.0,29.99,North,350,0.0,3.0,86,0.00,,,0.02,,2013-03-17 09:43:00,
2013-03-17 05:53:00,28.0,24.0,30.01,North,0,0.0,0.0,85,0.00,,,0.02,,2013-03-17 09:53:00,
2013-03-17 06:03:00,28.0,24.0,30.01,North,0,0.0,0.0,85,0.00,,,0.02,,2013-03-17 10:03:00,
2013-03-17 06:13:00,28.0,24.0,30.01,North,0,0.0,0.0,85,0.00,,,0.02,,2013-03-17 10:13:00,
2013-03-17 06:23:00,28.0,24.0,30.02,North,0,0.0,0.0,84,0.00,,,0.02,,2013-03-17 10:23:00,
2013-03-17 06:33:00,28.0,24.0,30.02,North,0,0.0,0.0,84,0.00,,,0.02,,2013-03-17 10:33:00,
2013-03-17 06:42:00,28.0,24.0,30.02,North,0,0.0,0.0,84,0.00,,,0.02,,2013-03-17 10:42:00,
2013-03-17 06:52:00,28.0,24.0,30.02,North,0,0.0,0.0,84,0.00,,,0.02,,2013-03-17 10:52:00,
2013-03-17 07:02:00,28.0,23.0,30.03,NW,320,0.0,1.0,81,0.00,,,0.02,,2013-03-17 11:02:00,
2013-03-17 07:12:00,28.0,23.0,30.03,NW,320,0.0,1.0,81,0.00,,,0.02,,2013-03-17 11:12:00,
2013-03-17 07:22:00,28.0,23.0,30.05,West,274,0.0,1.0,81,0.00,,,0.02,,2013-03-17 11:22:00,
2013-03-17 07:32:00,27.0,22.0,30.07,NW,325,0.0,1.0,81,0.00,,,0.02,,2013-03-17 11:32:00,
2013-03-17 07:42:00,27.0,22.0,30.07,NW,325,0.0,1.0,81,0.00,,,0.02,,2013-03-17 11:42:00,
2013-03-17 07:52:00,28.0,21.0,30.08,NNW,331,0.0,2.0,76,0.00,,,0.02,,2013-03-17 11:52:00,
2013-03-17 08:02:00,29.0,22.0,30.09,NNW,339,0.0,2.0,74,0.00,,,0.02,,2013-03-17 12:02:00,
2013-03-17 08:12:00,29.0,22.0,30.09,NNW,339,0.0,2.0,74,0.00,,,0.02,,2013-03-17 12:12:00,
2013-03-17 08:22:00,29.0,21.0,30.09,NNW,333,0.0,1.0,73,0.00,,,0.02,,2013-03-17 12:22:00,
2013-03-17 08:33:00,30.0,21.0,30.09,North,6,0.0,3.0,69,0.00,,,0.02,,2013-03-17 12:33:00,
2013-03-17 08:43:00,30.0,21.0,30.09,North,6,0.0,3.0,69,0.00,,,0.02,,2013-03-17 12:43:00,
2013-03-17 08:52:00,30.0,21.0,30.09,North,6,0.0,3.0,69,0.00,,,0.02,,2013-03-17 12:52:00,
2013-03-17 09:02:00,31.0,20.0,30.10,North,2,1.0,6.0,63,0.00,,,0.02,,2013-03-17 13:02:00,
2013-03-17 09:12:00,31.0,20.0,30.10,North,2,1.0,6.0,63,0.00,,,0.02,,2013-03-17 13:12:00,
2013-03-17 09:22:00,32.0,20.0,30.11,North,2,2.0,7.0,61,0.00,,,0.02,,2013-03-17 13:22:00,
2013-03-17 09:32:00,32.0,19.0,30.12,NNE,23,2.0,6.0,59,0.00,,,0.02,,2013-03-17 13:32:00,
2013-03-17 09:42:00,32.0,19.0,30.12,NNE,23,2.0,6.0,59,0.00,,,0.02,,2013-03-17 13:42:00,
2013-03-17 09:52:00,32.0,19.0,30.12,NNE,23,2.0,6.0,59,0.00,,,0.02,,2013-03-17 13:52:00,
2013-03-17 10:02:00,33.0,20.0,30.13,NNE,26,2.0,8.0,58,0.00,,,0.02,,2013-03-17 14:02:00,
2013-03-17 10:12:00,33.0,20.0,30.13,NNE,26,2.0,8.0,58,0.00,,,0.02,,2013-03-17 14:12:00,
2013-03-17 10:22:00,33.0,20.0,30.13,NNE,19,2.0,7.0,59,0.00,,,0.02,,2013-03-17 14:22:00,
2013-03-17 10:33:00,34.0,20.0,30.13,NNE,13,2.0,11.0,57,0.00,,,0.02,,2013-03-17 14:33:00,
2013-03-17 10:42:00,34.0,20.0,30.13,NNE,13,2.0,11.0,57,0.00,,,0.02,,2013-03-17 14:42:00,
2013-03-17 10:53:00,34.0,20.0,30.14,NNE,32,3.0,7.0,55,0.00,,,0.02,,2013-03-17 14:53:00,
2013-03-17 11:02:00,34.0,20.0,30.14,NNE,32,3.0,7.0,55,0.00,,,0.02,,2013-03-17 15:02:00,
2013-03-17 11:12:00,34.0,20.0,30.14,NNE,32,3.0,7.0,55,0.00,,,0.02,,2013-03-17 15:12:00,
2013-03-17 11:23:00,34.0,20.0,30.14,NNE,32,3.0,7.0,55,0.00,,,0.02,,2013-03-17 15:23:00,
2013-03-17 11:33:00,34.0,20.0,30.14,North,7,3.0,6.0,56,0.00,,,0.02,,2013-03-17 15:33:00,
2013-03-17 11:43:00,34.0,20.0,30.14,North,7,3.0,6.0,56,0.00,,,0.02,,2013-03-17 15:43:00,
2013-03-17 11:53:00,34.0,20.0,30.14,North,7,3.0,6.0,56,0.00,,,0.02,,2013-03-17 15:53:00,
2013-03-17 12:03:00,34.0,20.0,30.14,North,7,3.0,6.0,56,0.00,,,0.02,,2013-03-17 16:03:00,
2013-03-17 12:34:00,34.0,19.0,30.14,NNE,29,4.0,8.0,53,0.00,,,0.02,,2013-03-17 16:34:00,
2013-03-17 12:43:00,34.0,19.0,30.14,NNE,29,4.0,8.0,53,0.00,,,0.02,,2013-03-17 16:43:00,
2013-03-17 12:52:00,35.0,19.0,30.14,NNE,29,3.0,11.0,52,0.00,,,0.02,,2013-03-17 16:52:00,
2013-03-17 13:03:00,35.0,19.0,30.14,NE,39,3.0,7.0,52,0.00,,,0.02,,2013-03-17 17:03:00,
2013-03-17 13:12:00,35.0,19.0,30.14,NE,39,3.0,7.0,52,0.00,,,0.02,,2013-03-17 17:12:00,
2013-03-17 13:22:00,36.0,20.0,30.14,North,354,3.0,9.0,52,0.00,,,0.02,,2013-03-17 17:22:00,
2013-03-17 13:33:00,36.0,20.0,30.15,North,9,2.0,10.0,52,0.00,,,0.02,,2013-03-17 17:33:00,
2013-03-17 13:42:00,36.0,20.0,30.15,North,9,2.0,10.0,52,0.00,,,0.02,,2013-03-17 17:42:00,
2013-03-17 13:52:00,36.0,19.0,30.15,North,8,3.0,9.0,49,0.00,,,0.02,,2013-03-17 17:52:00,
2013-03-17 14:02:00,37.0,20.0,30.15,NNE,18,3.0,11.0,49,0.00,,,0.02,,2013-03-17 18:02:00,
2013-03-17 14:12:00,37.0,20.0,30.15,NNE,18,3.0,11.0,49,0.00,,,0.02,,2013-03-17 18:12:00,
2013-03-17 14:22:00,37.0,20.0,30.15,North,4,4.0,10.0,49,0.00,,,0.02,,2013-03-17 18:22:00,
2013-03-17 14:32:00,37.0,20.0,30.14,North,10,3.0,11.0,49,0.00,,,0.02,,2013-03-17 18:32:00,
2013-03-17 14:42:00,37.0,20.0,30.14,North,10,3.0,11.0,49,0.00,,,0.02,,2013-03-17 18:42:00,
2013-03-17 14:52:00,38.0,21.0,30.14,North,4,3.0,10.0,50,0.00,,,0.02,,2013-03-17 18:52:00,
2013-03-17 15:02:00,38.0,21.0,30.14,NW,319,2.0,7.0,49,0.00,,,0.02,,2013-03-17 19:02:00,
2013-03-17 15:12:00,38.0,21.0,30.14,NW,319,2.0,7.0,49,0.00,,,0.02,,2013-03-17 19:12:00,
2013-03-17 15:22:00,39.0,21.0,30.13,NW,313,3.0,9.0,48,0.00,,,0.02,,2013-03-17 19:22:00,
2013-03-17 15:33:00,39.0,20.0,30.13,NW,324,3.0,9.0,47,0.00,,,0.02,,2013-03-17 19:33:00,
2013-03-17 15:42:00,39.0,20.0,30.13,NW,324,3.0,9.0,47,0.00,,,0.02,,2013-03-17 19:42:00,
2013-03-17 15:53:00,39.0,20.0,30.13,NW,324,3.0,9.0,47,0.00,,,0.02,,2013-03-17 19:53:00,
2013-03-17 16:02:00,39.0,20.0,30.13,NW,324,3.0,9.0,47,0.00,,,0.02,,2013-03-17 20:02:00,
2013-03-17 16:23:00,40.0,18.0,30.14,North,358,3.0,10.0,41,0.00,,,0.01,,2013-03-17 20:23:00,
2013-03-17 16:33:00,39.0,17.0,30.15,North,351,3.0,10.0,40,0.00,,,0.01,,2013-03-17 20:33:00,
2013-03-17 16:42:00,39.0,17.0,30.15,North,351,3.0,10.0,40,0.00,,,0.01,,2013-03-17 20:42:00,
2013-03-17 16:52:00,39.0,16.0,30.14,NNW,332,3.0,10.0,39,0.00,,,0.00,,2013-03-17 20:52:00,
2013-03-17 17:03:00,39.0,16.0,30.14,NNW,332,3.0,10.0,39,0.00,,,0.00,,2013-03-17 21:03:00,
2013-03-17 17:12:00,39.0,16.0,30.14,NNW,332,3.0,10.0,39,0.00,,,0.00,,2013-03-17 21:12:00,
2013-03-17 17:22:00,39.0,16.0,30.15,North,5,2.0,10.0,39,0.01,,,0.01,,2013-03-17 21:22:00,
2013-03-17 17:33:00,39.0,17.0,30.16,North,8,2.0,7.0,41,0.01,,,0.01,,2013-03-17 21:33:00,
2013-03-17 17:43:00,39.0,17.0,30.16,North,8,2.0,7.0,41,0.01,,,0.01,,2013-03-17 21:43:00,
2013-03-17 17:52:00,39.0,17.0,30.16,North,8,2.0,7.0,41,0.01,,,0.01,,2013-03-17 21:52:00,
2013-03-17 18:03:00,39.0,17.0,30.17,NNW,328,2.0,5.0,40,0.01,,,0.01,,2013-03-17 22:03:00,
2013-03-17 18:13:00,39.0,17.0,30.17,NNW,328,2.0,5.0,40,0.01,,,0.01,,2013-03-17 22:13:00,
2013-03-17 18:23:00,39.0,17.0,30.17,NNW,328,2.0,5.0,40,0.01,,,0.01,,2013-03-17 22:23:00,
2013-03-17 18:33:00,38.0,16.0,30.18,North,5,1.0,6.0,41,0.00,,,0.01,,2013-03-17 22:33:00,
2013-03-17 18:42:00,38.0,16.0,30.18,North,5,1.0,6.0,41,0.00,,,0.01,,2013-03-17 22:42:00,
2013-03-17 18:53:00,38.0,17.0,30.19,NW,311,1.0,4.0,42,0.00,,,0.01,,2013-03-17 22:53:00,
2013-03-17 19:03:00,38.0,17.0,30.19,NW,311,1.0,4.0,42,0.00,,,0.01,,2013-03-17 23:03:00,
2013-03-17 19:12:00,38.0,17.0,30.19,NW,311,1.0,4.0,42,0.00,,,0.01,,2013-03-17 23:12:00,
2013-03-17 19:22:00,37.0,17.0,30.20,North,354,0.0,2.0,44,0.00,,,0.01,,2013-03-17 23:22:00,
2013-03-17 19:33:00,37.0,17.0,30.20,North,354,0.0,2.0,44,0.00,,,0.01,,2013-03-17 23:33:00,
2013-03-17 19:43:00,37.0,17.0,30.20,North,354,0.0,2.0,44,0.00,,,0.01,,2013-03-17 23:43:00,
2013-03-17 19:53:00,37.0,18.0,30.22,NW,319,0.0,1.0,45,0.00,,,0.01,,2013-03-17 23:53:00,
2013-03-17 20:03:00,36.0,17.0,30.22,NNW,340,0.0,1.0,45,0.00,,,0.01,,2013-03-18 00:03:00,
2013-03-17 20:13:00,36.0,17.0,30.22,NNW,340,0.0,1.0,45,0.00,,,0.01,,2013-03-18 00:13:00,
2013-03-17 20:22:00,36.0,17.0,30.22,NNW,340,0.0,1.0,45,0.00,,,0.01,,2013-03-18 00:22:00,
2013-03-17 20:33:00,36.0,17.0,30.22,NNW,340,0.0,1.0,45,0.00,,,0.01,,2013-03-18 00:33:00,
2013-03-17 20:42:00,36.0,17.0,30.22,NNW,340,0.0,1.0,45,0.00,,,0.01,,2013-03-18 00:42:00,
2013-03-17 20:53:00,34.0,19.0,30.25,North,11,0.0,1.0,54,0.00,,,0.01,,2013-03-18 00:53:00,
2013-03-17 21:02:00,34.0,19.0,30.25,North,0,0.0,0.0,53,0.00,,,0.01,,2013-03-18 01:02:00,
2013-03-17 21:12:00,34.0,19.0,30.25,North,0,0.0,0.0,53,0.00,,,0.01,,2013-03-18 01:12:00,
2013-03-17 21:22:00,34.0,15.0,30.27,NNE,16,0.0,2.0,46,0.00,,,0.01,,2013-03-18 01:22:00,
2013-03-17 21:32:00,34.0,15.0,30.27,NNE,16,0.0,2.0,46,0.00,,,0.01,,2013-03-18 01:32:00,
2013-03-17 21:42:00,34.0,15.0,30.27,NNE,16,0.0,2.0,46,0.00,,,0.01,,2013-03-18 01:42:00,
2013-03-17 21:52:00,33.0,14.0,30.27,NE,38,0.0,2.0,45,0.00,,,0.01,,2013-03-18 01:52:00,
2013-03-17 22:02:00,34.0,15.0,30.28,NE,39,0.0,2.0,46,0.00,,,0.01,,2013-03-18 02:02:00,
2013-03-17 22:12:00,34.0,15.0,30.28,NE,39,0.0,2.0,46,0.00,,,0.01,,2013-03-18 02:12:00,
2013-03-17 22:22:00,34.0,14.0,30.29,NNW,343,0.0,1.0,43,0.00,,,0.01,,2013-03-18 02:22:00,
2013-03-17 22:32:00,34.0,14.0,30.29,NNW,341,0.0,1.0,44,0.00,,,0.01,,2013-03-18 02:32:00,
2013-03-17 22:42:00,34.0,14.0,30.29,NNW,341,0.0,1.0,44,0.00,,,0.01,,2013-03-18 02:42:00,
2013-03-17 22:52:00,34.0,14.0,30.29,NNW,341,0.0,1.0,44,0.00,,,0.01,,2013-03-18 02:52:00,
2013-03-17 23:03:00,34.0,13.0,30.31,North,8,0.0,4.0,42,0.00,,,0.01,,2013-03-18 03:03:00,
2013-03-17 23:12:00,34.0,13.0,30.31,North,8,0.0,4.0,42,0.00,,,0.01,,2013-03-18 03:12:00,
2013-03-17 23:22:00,33.0,14.0,30.31,North,352,0.0,2.0,45,0.00,,,0.01,,2013-03-18 03:22:00,
2013-03-17 23:33:00,33.0,14.0,30.32,North,11,0.0,2.0,45,0.00,,,0.01,,2013-03-18 03:33:00,
2013-03-17 23:42:00,33.0,14.0,30.32,North,11,0.0,2.0,45,0.00,,,0.01,,2013-03-18 03:42:00,
2013-03-17 23:53:00,33.0,14.0,30.32,North,11,0.0,2.0,45,0.00,,,0.01,,2013-03-18 03:53:00,